Waarnemingen

Advertentie
Mijn weer
Bezier-Vias, Frankrijk (7638): temperatuur & dauwpunt: 20.04.2018 11:00:00 - 26.04.2018 11:00:00 (CEST)Bezier-Vias, Frankrijk (7638): windsnelheid & windstoten: 20.04.2018 11:00:00 - 26.04.2018 11:00:00 (CEST)Bezier-Vias, Frankrijk (7638): windrichting: 20.04.2018 11:00:00 - 26.04.2018 11:00:00 (CEST)Bezier-Vias, Frankrijk (7638): luchtdruk: 20.04.2018 11:00:00 - 26.04.2018 11:00:00 (CEST)Bezier-Vias, Frankrijk (7638): zicht: 20.04.2018 11:00:00 - 26.04.2018 11:00:00 (CEST)Bezier-Vias, Frankrijk (7638): neerslag: 20.04.2018 11:00:00 - 26.04.2018 11:00:00 (CEST)
Datum & Tijd tt [°C] td [°C] ff [km/u] ff [kn] fx [km/u] fx [kn] dd ppp [hPa] vv [km] rr [mm]
26.04.2018 11:00:00 18,5 0,6 25 14 48 26 NW 1019,3 18 0,0
26.04.2018 10:00:00 17,3 2,8 30 16 47 26 NW 1019,5 21 0,0
26.04.2018 09:00:00 16,4 6,2 23 12 44 24 NW 1019,9 23 0,0
26.04.2018 08:00:00 15,3 7,8 16 9 28 15 NNW 1019,5 25 0,0
26.04.2018 07:00:00 13,4 7,6 16 9 24 13 NNW 1019,2 38 0,0
26.04.2018 06:00:00 14,4 8,1 11 6 27 14 N 1019,1 60 0,0
26.04.2018 05:00:00 15,6 8,1 18 10 48 26 NNW 1019,0 60 0,0
26.04.2018 04:00:00 16,5 7,4 31 17 51 28 NNW 1018,6 60 0,0
26.04.2018 03:00:00 15,2 7,5 20 11 27 15 NNW 1019,0 60 0,0
26.04.2018 02:00:00 15,4 7,4 18 10 29 16 NW 1019,5 60 0,0
26.04.2018 01:00:00 16,0 8,2 20 11 36 20 NW 1020,1 60 0,0
26.04.2018 00:00:00 15,4 9,1 21 11 34 18 WNW 1020,1 60 0,0
25.04.2018 23:00:00 16,0 9,9 24 13 41 22 WNW 1020,0 60 0,0
25.04.2018 22:00:00 16,0 10,7 15 8 39 21 NW 1019,6 60 0,0
25.04.2018 21:00:00 17,2 11,0 22 12 38 21 WNW 1018,5 60 0,0
25.04.2018 20:00:00 18,8 11,6 28 15 53 28 W 1017,9 41 0,0
25.04.2018 19:00:00 20,7 11,3 33 18 52 28 W 1017,0 26 0,0
25.04.2018 18:00:00 22,0 12,8 30 16 53 29 W 1016,7 25 0,0
25.04.2018 17:00:00 24,4 12,4 30 16 50 27 W 1016,2 24 0,0
25.04.2018 16:00:00 25,0 13,9 27 15 49 26 W 1016,3 27 0,0
25.04.2018 15:00:00 24,2 14,3 31 17 50 27 W 1017,0 20 0,0
25.04.2018 14:00:00 23,7 14,4 26 14 40 22 W 1017,4 20 0,0
25.04.2018 13:00:00 22,7 15,0 19 10 31 17 W 1018,2 20 0,0
25.04.2018 12:00:00 22,0 15,4 17 9 29 15 W 1019,0 41 0,0
25.04.2018 11:00:00 20,3 14,9 15 8 28 15 W 1019,5 20 0,0
25.04.2018 10:00:00 17,8 13,7 16 8 27 14 W 1019,6 18 0,0
25.04.2018 09:00:00 16,3 13,8 9 5 19 11 ZW 1019,0 16 0,0
25.04.2018 08:00:00 13,1 11,7 6 3 19 11 WZW 1018,0 20 0,0
25.04.2018 07:00:00 11,0 9,6 8 4 16 8 NNW 1017,4 20 0,0
25.04.2018 06:00:00 11,8 10,4 10 5 15 8 N 1016,6 26 0,0
25.04.2018 05:00:00 12,0 10,2 4 2 10 5 NNO 1016,7 33 0,0
25.04.2018 04:00:00 12,9 11,1 4 2 13 7 N 1016,4 36 0,0
25.04.2018 03:00:00 12,9 10,8 5 3 9 5 N 1016,5 35 0,0
25.04.2018 02:00:00 13,1 10,8 9 5 10 5 NW 1016,9 36 0,0
25.04.2018 01:00:00 14,6 11,9 3 2 6 3 ONO 1017,0 37 0,0
25.04.2018 00:00:00 15,3 11,9 2 1 5 3 NO 1017,2 36 0,0
24.04.2018 23:00:00 16,0 12,4 5 3 9 5 NNO 1017,2 43 0,0
24.04.2018 22:00:00 17,0 11,9 7 4 10 5 NW 1017,2 50 0,0
24.04.2018 21:00:00 18,5 13,1 4 2 22 12 ZW 1016,7 26 0,0
24.04.2018 20:00:00 20,2 13,2 13 7 28 15 ZZW 1016,6 42 0,0
24.04.2018 19:00:00 21,6 12,7 18 10 30 16 ZZW 1016,9 28 0,0
24.04.2018 18:00:00 23,3 12,0 17 9 31 17 ZZW 1016,8 39 0,0
24.04.2018 17:00:00 24,0 12,0 18 10 29 15 Z 1017,2 37 0,0
24.04.2018 16:00:00 24,3 11,6 18 10 27 15 Z 1017,8 34 0,0
24.04.2018 15:00:00 24,6 10,8 15 8 29 16 Z 1018,4 34 0,0
24.04.2018 14:00:00 24,7 9,4 18 10 27 15 Z 1018,8 36 0,0
24.04.2018 13:00:00 24,6 12,2 14 8 24 13 Z 1019,2 38 0,0
24.04.2018 12:00:00 24,0 12,0 10 5 19 10 WZW 1019,5 51 0,0
24.04.2018 11:00:00 23,2 13,9 9 5 19 11 WZW 1019,6 44 0,0
24.04.2018 10:00:00 20,9 15,4 10 5 15 8 NW 1019,5 35 0,0
24.04.2018 09:00:00 17,4 15,0 5 3 10 5 W 1019,4 41 0,0
24.04.2018 08:00:00 13,9 12,9 9 5 11 6 WNW 1019,1 20 0,0
24.04.2018 07:00:00 12,7 11,8 10 5 16 9 W 1018,7 19 0,0
24.04.2018 06:00:00 12,3 11,4 12 6 15 8 W 1018,4 8 0,0
24.04.2018 05:00:00 13,4 12,3 7 4 13 7 W 1018,9 8 0,0
24.04.2018 04:00:00 13,8 12,7 10 5 17 9 W 1019,1 9 0,0
24.04.2018 03:00:00 14,1 13,0 8 5 15 8 WZW 1019,4 9 0,0
24.04.2018 02:00:00 14,2 12,8 7 4 11 6 W 1019,7 8 0,0
24.04.2018 01:00:00 15,4 13,8 8 5 15 8 WNW 1019,9 13 0,0
24.04.2018 00:00:00 16,2 14,4 5 3 16 9 NNW 1019,7 15 0,0
23.04.2018 23:00:00 17,0 14,6 11 6 19 11 WZW 1019,0 18 0,0
23.04.2018 22:00:00 18,1 15,2 9 5 22 12 W 1019,2 20 0,0
23.04.2018 21:00:00 19,5 15,2 13 7 27 15 NW 1017,8 27 0,2
23.04.2018 20:00:00 18,1 15,0 24 13 50 27 W 1018,3 12 0,2
23.04.2018 19:00:00 19,6 14,0 19 11 32 18 W 1018,7 20 0,0
23.04.2018 18:00:00 20,2 14,3 7 4 21 12 WNW 1018,1 20 0,0
23.04.2018 17:00:00 20,6 14,7 8 4 26 14 W 1018,5 20 0,0
23.04.2018 16:00:00 21,5 14,2 10 6 18 10 W 1018,9 30 0,0
23.04.2018 15:00:00 21,8 12,9 8 5 19 10 WNW 1019,4 21 0,0
23.04.2018 14:00:00 20,4 12,6 13 7 19 10 W 1019,6 37 0,0
23.04.2018 13:00:00 20,5 12,2 8 5 16 9 ZW 1019,9 33 0,0
23.04.2018 12:00:00 20,2 11,7 7 4 16 9 WNW 1019,9 40 0,0
23.04.2018 11:00:00 19,5 12,0 6 3 13 7 N 1019,7 33 0,0
23.04.2018 10:00:00 18,3 13,4 9 5 18 10 N 1019,6 11 0,0
23.04.2018 09:00:00 16,2 12,7 11 6 19 10 NNW 1019,6 9 0,0
23.04.2018 08:00:00 14,1 12,1 11 6 18 10 NW 1019,4 20 0,0
23.04.2018 07:00:00 12,1 10,5 10 5 15 8 N 1018,6 19 0,0
23.04.2018 06:00:00 12,3 10,5 11 6 17 9 N 1018,4 19 0,0
23.04.2018 05:00:00 13,1 11,5 12 6 22 12 NO 1018,1 19 0,0
23.04.2018 04:00:00 13,4 11,8 14 8 21 11 NNO 1018,1 17 0,0
23.04.2018 03:00:00 13,2 11,6 12 7 18 10 NNO 1018,2 19 0,0
23.04.2018 02:00:00 13,4 11,6 11 6 18 10 NNO 1018,6 20 0,0
23.04.2018 01:00:00 13,6 11,8 11 6 16 9 NNO 1018,6 18 0,0
23.04.2018 00:00:00 14,5 12,7 12 7 19 10 NO 1018,4 20 0,0
22.04.2018 23:00:00 14,4 12,4 9 5 15 8 NNO 1018,8 17 0,0
22.04.2018 22:00:00 14,7 12,4 9 5 16 9 NO 1018,2 20 0,0
22.04.2018 21:00:00 15,9 12,6 7 4 16 9 O 1017,7 20 0,0
22.04.2018 20:00:00 17,5 12,8 9 5 21 11 OZO 1017,0 36 0,0
22.04.2018 19:00:00 18,1 13,8 13 7 27 15 O 1016,9 20 0,0
22.04.2018 18:00:00 18,5 14,2 14 8 22 12 ZO 1016,8 20 0,0
22.04.2018 17:00:00 19,6 14,0 11 6 20 11 ZO 1017,0 19 0,0
22.04.2018 16:00:00 19,7 13,8 13 7 27 15 ZO 1017,3 19 0,0
22.04.2018 15:00:00 20,4 14,1 16 8 27 15 ZZO 1017,5 20 0,0
22.04.2018 14:00:00 21,4 13,6 20 11 29 15 O 1017,6 18 0,0
22.04.2018 13:00:00 21,1 13,3 23 12 36 20 O 1018,0 18 0,0
22.04.2018 12:00:00 19,4 14,4 24 13 34 18 O 1018,3 19 0,0
22.04.2018 11:00:00 19,9 14,5 19 10 32 17 O 1018,4 20 0,0
22.04.2018 10:00:00 18,3 13,8 25 14 35 19 ONO 1017,8 19 0,0
22.04.2018 09:00:00 16,2 12,2 18 10 26 14 NO 1017,5 20 0,0
22.04.2018 08:00:00 13,4 10,4 15 8 21 11 NNO 1017,4 20 0,0
22.04.2018 07:00:00 11,6 9,5 15 8 21 12 NNO 1016,9 20 0,0
22.04.2018 06:00:00 12,1 9,5 15 8 22 12 NNO 1016,8 29 0,0
22.04.2018 05:00:00 12,4 10,5 6 3 22 12 NNO 1017,2 16 0,0
22.04.2018 04:00:00 12,7 10,6 14 8 21 11 NO 1017,2 20 0,0
22.04.2018 03:00:00 11,8 9,9 10 5 13 7 NNO 1017,8 18 0,0
22.04.2018 02:00:00 13,3 10,8 9 5 21 11 NO 1017,9 19 0,0
22.04.2018 01:00:00 13,4 10,4 16 8 19 11 NO 1018,2 27 0,0
22.04.2018 00:00:00 14,1 11,1 6 3 14 8 ONO 1018,6 28 0,0
21.04.2018 23:00:00 14,5 11,1 8 5 14 7 NNO 1018,5 31 0,0
21.04.2018 22:00:00 14,9 11,5 8 4 11 6 NO 1018,6 32 0,0
21.04.2018 21:00:00 17,1 11,4 3 2 8 5 ZW 1018,4 34 0,0
21.04.2018 20:00:00 19,2 11,0 4 2 18 10 Z 1018,2 46 0,0
21.04.2018 19:00:00 21,2 9,1 11 6 20 11 Z 1018,4 50 0,0
21.04.2018 18:00:00 22,2 9,0 12 7 21 11 Z 1018,6 58 0,0
21.04.2018 17:00:00 23,0 9,7 10 6 20 11 ZZO 1018,7 58 0,0
21.04.2018 16:00:00 24,0 7,6 10 5 19 10 Z 1019,3 44 0,0
21.04.2018 15:00:00 23,5 8,0 11 6 21 11 ZZO 1019,8 37 0,0
21.04.2018 14:00:00 23,2 8,5 11 6 19 10 Z 1020,0 31 0,0
21.04.2018 13:00:00 23,3 11,4 11 6 19 10 Z 1020,4 19 0,0
21.04.2018 12:00:00 23,1 8,8 5 3 13 7 OZO 1020,8 45 0,0
21.04.2018 11:00:00 21,5 9,7 5 3 10 5 ONO 1020,8 42 0,0
21.04.2018 10:00:00 18,6 10,7 5 3 11 6 NO 1020,9 36 0,0
21.04.2018 09:00:00 15,3 10,9 6 3 11 6 N 1020,9 38 0,0
21.04.2018 08:00:00 12,0 9,7 9 5 14 8 N 1020,7 27 0,0
21.04.2018 07:00:00 10,2 8,5 7 4 11 6 N 1020,6 21 0,0
21.04.2018 06:00:00 10,5 8,8 0 0 11 6 N 1020,5 19 0,0
21.04.2018 05:00:00 10,8 9,1 3 2 7 4 N 1020,8 21 0,0
21.04.2018 04:00:00 11,2 9,5 3 2 9 5 N 1021,0 22 0,0
21.04.2018 03:00:00 11,1 9,4 2 1 8 4 NNW 1021,2 11 0,0
21.04.2018 02:00:00 11,9 9,8 3 2 7 4 NNO 1021,4 16 0,0
21.04.2018 01:00:00 12,1 10,0 4 2 7 4 NW 1021,7 11 0,0
21.04.2018 00:00:00 13,5 11,0 4 2 8 4 NNW 1021,9 16 0,0
20.04.2018 23:00:00 14,2 11,5 5 3 6 4 W 1021,9 12 0,0
20.04.2018 22:00:00 16,3 12,3 4 2 7 4 ZW 1021,9 18 0,0
20.04.2018 21:00:00 17,9 11,9 0 0 8 4 N 1021,5 20 0,0
20.04.2018 20:00:00 21,2 11,5 4 2 8 4 Z 1021,3 19 0,0
20.04.2018 19:00:00 21,5 10,9 6 4 14 8 Z 1021,7 45 0,0
20.04.2018 18:00:00 22,2 7,6 8 4 18 10 ZO 1022,1 30 0,0
20.04.2018 17:00:00 23,4 5,3 12 6 21 11 Z 1022,4 20 0,0
20.04.2018 16:00:00 24,0 4,9 11 6 25 14 ZO 1022,8 46 0,0
20.04.2018 15:00:00 24,0 4,9 12 6 22 12 ZO 1023,3 54 0,0
20.04.2018 14:00:00 23,2 10,3 11 6 20 11 ZO 1023,6 54 0,0
20.04.2018 13:00:00 23,8 6,6 11 6 32 17 O 1024,0 52 0,0
20.04.2018 12:00:00 22,1 7,5 10 5 18 10 O 1024,4 53 0,0
20.04.2018 11:00:00 20,8 6,7 4 2 11 6 ZZO 1024,3 35 0,0

tt = temperatuur
td = dauwpunt
ff = windsnelheid
fx = windstoten
dd = windrichting
ppp = luchtdruk
vv = zicht
rr = neerslag

Weerstations in de omgeving